[[{"header":{"parameterUnit":"m.s-1","parameterCategory":2,"la1":30.2991,"la2":30.254,"lo1":-89.0895,"lo2":-89.0444,"dy":0.0017,"dx":0.0017,"nx":28,"ny":28,"refTime":"2024-05-24T09:00:00:Z","depth":"0","parameterNumber":2,"parameterNumberName":"U-component_of_CURRENTS"},"data":[0,0,0,0,0,0,0,0,0,0,0,0,0,0,0,0,0,0,0,0,0,0,0,0,0,0,0,0,0,0,0,0,0,0,0,0,0,0,0,0,0,0,0,0,0,0,0,0,0,0,0,0,0,0,0,0,0,0,0.2315,0.2315,0,0.2347,0.2347,0.2347,0.2341,0.2341,0.2341,0.2341,0.2316,0.2316,0.2315,0,0,0,0,0,0,0,0,0,0,0,0,0,0.2231,0.2233,0.2314,0.2315,0.2316,0.2347,0.2347,0.2347,0.2341,0.2341,0.2341,0.234,0.2316,0.2316,0.2315,0,0,0,0,0,0,0,0,0,0,0,0,0,0.2263,0.2233,0.2314,0.2319,0.232,0.2347,0.2347,0.2347,0.2341,0.2341,0.2341,0.234,0.2316,0.2316,0.2315,0.232,0,0,0.2314,0.2313,0,0,0,0,0,0,0,0,0.2261,0.2266,0.2318,0.2319,0.232,0.2342,0.2309,0.2336,0.2342,0.233,0.2341,0.234,0.2322,0.2321,0.2324,0.2319,0.2318,0.2313,0.2313,0.2313,0.2313,0,0,0,0,0,0,0,0.2259,0.2264,0.2324,0.2319,0.232,0.2314,0.2318,0.2314,0.2324,0.2331,0.2331,0.234,0.2322,0.2325,0.2323,0.2317,0.2313,0.2313,0.2313,0.2312,0.2318,0.2319,0,0,0,0,0,0,0.2263,0.2262,0.2323,0.2325,0.2293,0.2316,0.232,0.2333,0.2326,0.2326,0.2341,0.234,0.2326,0.2324,0.2323,0.2333,0.2313,0.2312,0.2312,0.2318,0.2318,0.2319,0,0,0,0,0,0,0.2261,0.2268,0.2322,0.2296,0.2303,0.2319,0.2333,0.2334,0.2341,0.2334,0.2332,0.2347,0.2326,0.2323,0.2324,0.2332,0.2312,0.2311,0.2317,0.2318,0.2319,0.2351,0,0,0,0,0,0,0.2259,0.2268,0.2278,0.2297,0.2305,0.2344,0.2333,0.2335,0.2348,0.2348,0.2339,0.2336,0.2325,0.2325,0.2323,0.2331,0.2311,0.2316,0.2317,0.2318,0.2349,0.2353,0.2356,0,0,0,0,0,0.2256,0.2271,0.2278,0.2286,0.2319,0.2345,0.2348,0.2355,0.2349,0.2358,0.2349,0.2337,0.2329,0.2325,0.2323,0.233,0.2316,0.2317,0.2318,0.2348,0.2352,0.2356,0,0,0,0,0,0,0.2235,0.2272,0.2281,0.2305,0.2328,0.2345,0.2356,0.236,0.2361,0.2358,0.2344,0.2341,0.2346,0.2334,0.2329,0.2335,0.232,0.2321,0.2344,0.2347,0.2351,0.2373,0.2311,0,0,0,0,0,0.2239,0.2261,0.2292,0.2311,0.2325,0.2341,0.2352,0.2359,0.2365,0.2366,0.2359,0.2351,0.2349,0.2345,0.2342,0.2344,0.2416,0.2348,0.2351,0.2354,0.2372,0.2499,0.2517,0.2323,0.2323,0.2323,0,0,0.2235,0.2259,0.2271,0.2309,0.2325,0.2342,0.2346,0.2368,0.2375,0.2362,0.2363,0.2364,0.2354,0.2358,0.2359,0.2349,0.245,0.2355,0.2358,0.2374,0.2502,0.2522,0.2539,0.2323,0.2323,0.2323,0,0,0.2239,0.2264,0.2284,0.2305,0.2339,0.2348,0.2356,0.2378,0.2382,0.239,0.2384,0.2393,0.2382,0.2384,0.2381,0.2401,0.2467,0.2396,0.2427,0.255,0.2568,0.2585,0.2724,0.2752,0.2393,0.2393,0.2393,0,0.2233,0.2262,0.2292,0.2316,0.2332,0.235,0.2368,0.2376,0.2391,0.2412,0.2392,0.2428,0.2396,0.2434,0.2423,0.241,0.2508,0.2412,0.2559,0.2577,0.2593,0.2731,0.2763,0.2395,0.2395,0.2395,0.2395,0,0.2253,0.2274,0.2287,0.232,0.2343,0.236,0.2384,0.2401,0.2405,0.2426,0.2473,0.2462,0.25,0.2473,0.244,0.2535,0.2578,0.2556,0.2556,0.2616,0.2756,0.2789,0.2398,0.2397,0.2396,0.2396,0,0,0.2237,0.2289,0.2293,0.2314,0.2346,0.2371,0.2389,0.2429,0.2482,0.2487,0.2569,0.2533,0.2574,0.2574,0.2564,0.2628,0.2798,0.2636,0.2642,0.2789,0.3119,0.3095,0.3129,0.2824,0.2829,0.2833,0.318,0,0.2238,0.2276,0.2303,0.2335,0.2356,0.2387,0.2417,0.246,0.2506,0.259,0.2609,0.2677,0.2603,0.2649,0.2705,0.2788,0.2883,0.2709,0.3027,0.3037,0.302,0.3164,0.3086,0.3383,0.3211,0.3217,0.3221,0,0.2241,0.2271,0.2301,0.2363,0.238,0.2405,0.2493,0.2527,0.2637,0.2688,0.2778,0.2827,0.2925,0.2853,0.3071,0.2981,0.3055,0.3103,0.3119,0.3108,0.3073,0.329,0.3449,0.3334,0.3271,0.3267,0.3263,0,0.2215,0.2266,0.2291,0.2308,0.238,0.2414,0.2458,0.256,0.2633,0.2784,0.289,0.3015,0.3128,0.3234,0.3308,0.3238,0.3562,0.3487,0.3546,0.3546,0.3545,0.3536,0.3639,0.366,0.3659,0.3658,0.3657,0,0.2198,0.2221,0.2287,0.2306,0.2374,0.2423,0.2527,0.2595,0.2742,0.2863,0.2961,0.3105,0.3234,0.3408,0.3439,0.3622,0.3696,0.3608,0.3649,0.3552,0.354,0.3486,0.3417,0.3671,0.3668,0.3666,0.3664,0,0.2176,0.2197,0.2253,0.2338,0.2363,0.2425,0.2559,0.2653,0.2789,0.2967,0.3031,0.326,0.3491,0.361,0.3824,0.3824,0.3869,0.3986,0.3865,0.3882,0.3782,0.3717,0.3753,0.3643,0.4154,0.4156,0.4157,0,0.2176,0.2199,0.2288,0.2326,0.2367,0.2457,0.2528,0.2658,0.2761,0.3043,0.3135,0.3426,0.359,0.3929,0.4013,0.4171,0.3968,0.4164,0.397,0.3818,0.3779,0.356,0.3445,0.4012,0.4013,0.4013,0.4013,0,0.2218,0.2245,0.2297,0.2356,0.2424,0.2506,0.2608,0.2682,0.285,0.302,0.3249,0.341,0.3755,0.391,0.4121,0.417,0.3967,0.4168,0.4064,0.3734,0.3458,0.3355,0.3746,0.4014,0.4014,0.4014,0.4013,0.4013,0.2275,0.2307,0.2356,0.2407,0.2465,0.2514,0.255,0.2675,0.2818,0.3012,0.3225,0.3431,0.3744,0.4039,0.4062,0.4081,0.3987,0.3989,0.3956,0.377,0.3542,0.3929,0.4177,0.4178,0.4179,0.418,0.418,0,0.2331,0.2342,0.24,0.2432,0.2452,0.2492,0.2572,0.259,0.2695,0.2926,0.311,0.3441,0.3633,0.3814,0.3998,0.3904,0.367,0.3794,0.3474,0.3393,0.3835,0.37,0.3789,0.3789,0.3789,0.3789,0.3789,0.3789,0.2367,0.2389,0.2386,0.2394,0.2403,0.239,0.2401,0.2452,0.2564,0.2757,0.2943,0.3148,0.3518,0.3797,0.3792,0.3708,0.3392,0.3283,0.3199,0.3516,0.3529,0.354,0.3395,0.3419,0.3419,0.2618,0.2613,0.2609]},{"header":{"parameterUnit":"m.s-1","parameterCategory":2,"la1":30.2991,"la2":30.254,"lo1":-89.0895,"lo2":-89.0444,"dy":0.0017,"dx":0.0017,"nx":28,"ny":28,"refTime":"2024-05-24T09:00:00:Z","depth":"0","parameterNumber":3,"parameterNumberName":"V-component_of_CURRENTS"},"data":[0,0,0,0,0,0,0,0,0,0,0,0,0,0,0,0,0,0,0,0,0,0,0,0,0,0,0,0,0,0,0,0,0,0,0,0,0,0,0,0,0,0,0,0,0,0,0,0,0,0,0,0,0,0,0,0,0,0,0.0004,0.0003,0,-0.0084,-0.0085,-0.0086,-0.0124,-0.0124,-0.0124,-0.0124,-0.0234,-0.0237,-0.024,0,0,0,0,0,0,0,0,0,0,0,0,0,0.0114,0.0112,0.0004,0.0003,0.0002,-0.0083,-0.0085,-0.0086,-0.0124,-0.0124,-0.0124,-0.0124,-0.0233,-0.0236,-0.024,0,0,0,0,0,0,0,0,0,0,0,0,0,0.0051,0.0112,0.0004,-0.0028,-0.0032,-0.0083,-0.0085,-0.0086,-0.0124,-0.0124,-0.0124,-0.0124,-0.0232,-0.0236,-0.024,-0.0271,0,0,-0.0254,-0.0256,0,0,0,0,0,0,0,0,0.0054,0.0047,-0.0022,-0.0026,-0.003,-0.0093,-0.0086,-0.0149,-0.0124,-0.0088,-0.0124,-0.0123,-0.0189,-0.0197,-0.0213,-0.0276,-0.0281,-0.0255,-0.0257,-0.0259,-0.0261,0,0,0,0,0,0,0,0.0059,0.005,-0.003,-0.0023,-0.0028,-0.0046,-0.0055,-0.0098,-0.0139,-0.0092,-0.0095,-0.0105,-0.0191,-0.0209,-0.0216,-0.0283,-0.0255,-0.0259,-0.0261,-0.0263,-0.0373,-0.0373,0,0,0,0,0,0,0.0069,0.0054,-0.0028,-0.0033,0.0013,-0.0048,-0.0058,-0.0073,-0.0138,-0.0148,-0.0105,-0.0107,-0.0201,-0.0211,-0.022,-0.0258,-0.0259,-0.0264,-0.0266,-0.0372,-0.0373,-0.0373,0,0,0,0,0,0,0.0072,0.0063,-0.0024,0.0009,-0.0004,-0.005,-0.0067,-0.0074,-0.0093,-0.0148,-0.0158,-0.0115,-0.0201,-0.0214,-0.0263,-0.0263,-0.0266,-0.027,-0.0372,-0.0372,-0.0373,-0.0336,0,0,0,0,0,0,0.0076,0.0064,0.0056,0.0009,-0.0005,-0.0054,-0.0067,-0.0076,-0.0099,-0.0102,-0.016,-0.017,-0.0202,-0.0256,-0.0268,-0.0269,-0.0273,-0.0372,-0.0372,-0.0373,-0.0337,-0.0335,-0.0333,0,0,0,0,0,0.008,0.0064,0.0056,0.0047,-0.0014,-0.0054,-0.0063,-0.0095,-0.01,-0.011,-0.015,-0.0168,-0.0266,-0.0261,-0.0274,-0.0276,-0.0372,-0.0372,-0.0373,-0.0338,-0.0335,-0.0333,0,0,0,0,0,0,0.0102,0.0057,0.0048,0.0019,-0.0012,-0.006,-0.0076,-0.0093,-0.0133,-0.0135,-0.0181,-0.0195,-0.0234,-0.0263,-0.0256,-0.0308,-0.0318,-0.0321,-0.0287,-0.0285,-0.0283,-0.0232,-0.0277,0,0,0,0,0,0.0106,0.0086,0.0044,0.0022,0.0008,-0.003,-0.005,-0.0069,-0.011,-0.0127,-0.0167,-0.0208,-0.0247,-0.0272,-0.031,-0.0347,-0.0333,-0.0354,-0.0352,-0.035,-0.0317,-0.0308,-0.0301,-0.0374,-0.0374,-0.0374,0,0,0.0107,0.0081,0.0069,0.0026,0.0001,-0.0014,-0.0042,-0.007,-0.0078,-0.0134,-0.0163,-0.0206,-0.0255,-0.0293,-0.0312,-0.0318,-0.0323,-0.0351,-0.0349,-0.0316,-0.0307,-0.03,-0.0293,-0.0374,-0.0374,-0.0374,0,0,0.0111,0.0081,0.0074,0.0051,0.0017,-0.0006,-0.001,-0.0055,-0.0072,-0.011,-0.0146,-0.0186,-0.0251,-0.0282,-0.0306,-0.0318,-0.0312,-0.0333,-0.0285,-0.0277,-0.027,-0.0264,-0.0232,-0.0224,-0.0333,-0.0333,-0.0333,0,0.0118,0.0105,0.0065,0.0057,0.0047,0.0004,0.0005,-0.0025,-0.0079,-0.0078,-0.0111,-0.0174,-0.024,-0.0256,-0.0272,-0.0312,-0.0291,-0.0291,-0.0272,-0.0265,-0.0259,-0.0229,-0.0219,-0.0331,-0.0331,-0.0331,-0.0332,0,0.0125,0.0115,0.0108,0.009,0.0072,0.0061,0.0025,0.0011,-0.0014,-0.0032,-0.0052,-0.0132,-0.015,-0.0199,-0.0249,-0.0239,-0.0232,-0.0269,-0.027,-0.0249,-0.0219,-0.021,-0.0329,-0.0329,-0.033,-0.033,0,0,0.0146,0.0121,0.0121,0.014,0.0094,0.0094,0.0075,0.0068,0.0111,0.0032,0.009,-0.0036,-0.0046,-0.0072,-0.0133,-0.0156,-0.0134,-0.0192,-0.0193,-0.0146,-0.0082,-0.0106,-0.0099,-0.0161,-0.0159,-0.0158,-0.0076,0,0.0172,0.0185,0.0156,0.0182,0.0193,0.0157,0.0168,0.0156,0.0149,0.0193,0.0116,0.0142,-0.0004,0.0018,-0.0039,-0.0088,-0.0107,-0.015,-0.0121,-0.0119,-0.0132,-0.0088,-0.0118,-0.005,-0.0067,-0.0065,-0.0064,0,0.0199,0.021,0.0242,0.0273,0.0279,0.0296,0.0348,0.0353,0.0377,0.0384,0.0376,0.0348,0.031,0.02,0.0113,0.01,0.0017,-0.0044,-0.0043,-0.0063,-0.0125,-0.0076,-0.0033,-0.0273,-0.005,-0.0051,-0.0052,0,0.0272,0.0278,0.0321,0.0322,0.0342,0.0377,0.04,0.0426,0.05,0.0548,0.0643,0.0556,0.0607,0.0454,0.0286,0.0225,0.0218,0.0121,0.0022,0.0021,0.0005,-0.0001,-0.0164,0.0077,0.0076,0.0076,0.0076,0,0.0321,0.0363,0.0375,0.0408,0.0518,0.0484,0.0624,0.0639,0.0732,0.088,0.078,0.0908,0.068,0.0635,0.0408,0.0266,0.0313,0.0066,0.0047,0.0014,0.0008,-0.0195,-0.0307,0.0079,0.0079,0.0078,0.0077,0,0.0426,0.04,0.049,0.0537,0.0565,0.0666,0.0803,0.0927,0.0971,0.1178,0.1223,0.1233,0.1159,0.0907,0.0718,0.0492,0.0186,0.024,0.0227,0.0202,-0.0154,-0.0261,-0.0358,-0.0462,0.0154,0.0154,0.0154,0,0.0492,0.0545,0.0637,0.0721,0.0763,0.0893,0.1014,0.1066,0.1204,0.1389,0.1524,0.1535,0.1558,0.1265,0.0848,0.0487,0.0236,0.025,0.0091,-0.0148,-0.0282,-0.0364,-0.0451,0.0091,0.0091,0.009,0.009,0,0.0687,0.072,0.0812,0.0955,0.109,0.1239,0.1394,0.1519,0.1618,0.1769,0.1956,0.1994,0.1735,0.1384,0.0903,0.0615,0.008,0.023,-0.0015,-0.0328,-0.0425,-0.0542,0.0022,0.0086,0.0086,0.0087,0.0087,0.0087,0.09,0.0999,0.1108,0.1241,0.1386,0.1553,0.1682,0.1836,0.2038,0.2235,0.2258,0.2306,0.1815,0.1144,0.0769,0.0033,0.0054,-0.0213,-0.031,-0.0361,-0.0512,0.0057,0.0081,0.0082,0.0082,0.0082,0.0083,0,0.1158,0.1223,0.1378,0.1526,0.168,0.17,0.192,0.204,0.2246,0.241,0.2522,0.2239,0.1637,0.0972,0.0029,-0.0434,-0.0626,-0.0691,-0.0848,-0.0905,-0.0398,-0.0459,-0.0553,-0.0552,-0.0552,-0.0552,-0.0552,-0.0551,0.1311,0.1471,0.1493,0.1745,0.1835,0.2032,0.2136,0.2313,0.2429,0.2565,0.2522,0.2489,0.1932,0.037,-0.0739,-0.0994,-0.1305,-0.1338,-0.1484,-0.1202,-0.1167,-0.1133,-0.1223,-0.1475,-0.1476,-0.1978,-0.1983,-0.1987]}],[{"header":{"parameterUnit":"m.s-1","parameterCategory":2,"la1":30.2991,"la2":30.254,"lo1":-89.0895,"lo2":-89.0444,"dy":0.0017,"dx":0.0017,"nx":28,"ny":28,"refTime":"2024-05-24T09:00:00:Z","depth":"2","parameterNumber":2,"parameterNumberName":"U-component_of_CURRENTS"},"data":[0,0,0,0,0,0,0,0,0,0,0,0,0,0,0,0,0,0,0,0,0,0,0,0,0,0,0,0,0,0,0,0,0,0,0,0,0,0,0,0,0,0,0,0,0,0,0,0,0,0,0,0,0,0,0,0,0,0,0.215,0.2151,0,0.2161,0.2161,0.2161,0.2131,0.213,0.2129,0.2129,0.2123,0.2124,0.2124,0,0,0,0,0,0,0,0,0,0,0,0,0,0.2011,0.2014,0.215,0.2151,0.2151,0.2161,0.2161,0.2161,0.2131,0.213,0.2129,0.2128,0.2123,0.2124,0.2124,0,0,0,0,0,0,0,0,0,0,0,0,0,0.2049,0.2015,0.215,0.214,0.2139,0.2161,0.2161,0.2161,0.2131,0.213,0.2129,0.2128,0.2123,0.2124,0.2124,0.2147,0,0,0.2126,0.2127,0,0,0,0,0,0,0,0,0.2047,0.2053,0.2141,0.2141,0.214,0.2146,0.211,0.2156,0.2131,0.2131,0.2129,0.2128,0.2132,0.2132,0.2132,0.2147,0.2147,0.2126,0.2127,0.2127,0.2127,0,0,0,0,0,0,0,0.2044,0.2052,0.2151,0.2142,0.2141,0.2103,0.2108,0.2118,0.2134,0.2131,0.2129,0.2136,0.2131,0.2131,0.2132,0.2147,0.2126,0.2127,0.2127,0.2128,0.222,0.2222,0,0,0,0,0,0,0.2056,0.2051,0.2151,0.2152,0.2094,0.2107,0.2112,0.2143,0.2134,0.2133,0.2137,0.2135,0.2131,0.2131,0.2131,0.2177,0.2127,0.2128,0.2128,0.2218,0.222,0.2223,0,0,0,0,0,0,0.2054,0.2066,0.2151,0.2102,0.2111,0.2111,0.2145,0.2143,0.2168,0.2139,0.2137,0.2166,0.213,0.213,0.2168,0.2176,0.2128,0.2129,0.2216,0.2219,0.2222,0.2257,0,0,0,0,0,0,0.205,0.2066,0.2103,0.2104,0.2114,0.2193,0.2146,0.2144,0.2174,0.2172,0.2164,0.2161,0.2129,0.2168,0.2169,0.2176,0.2129,0.2213,0.2217,0.2221,0.2253,0.2261,0.2267,0,0,0,0,0,0.2045,0.2102,0.2105,0.2117,0.2163,0.2196,0.2198,0.219,0.2177,0.2205,0.2197,0.2162,0.2192,0.2171,0.2172,0.2179,0.2211,0.2216,0.222,0.225,0.2259,0.2267,0,0,0,0,0,0,0.2056,0.2105,0.2108,0.2176,0.2197,0.2192,0.2217,0.2216,0.2232,0.2227,0.2197,0.2195,0.2226,0.2216,0.2193,0.2221,0.2193,0.2198,0.2216,0.2224,0.2231,0.2232,0.213,0,0,0,0,0,0.2079,0.2136,0.2162,0.2215,0.2231,0.2231,0.2247,0.2243,0.2251,0.2257,0.2247,0.2241,0.2244,0.2247,0.2249,0.2276,0.2306,0.2282,0.2289,0.2295,0.23,0.2386,0.2401,0.2238,0.2238,0.2238,0,0,0.2097,0.213,0.2162,0.2222,0.223,0.2247,0.2238,0.2272,0.2277,0.2256,0.2268,0.2273,0.2262,0.2278,0.2291,0.2271,0.2359,0.2301,0.2305,0.2307,0.2392,0.2408,0.2422,0.2241,0.224,0.224,0,0,0.2131,0.2191,0.2233,0.2256,0.2288,0.2287,0.2309,0.2322,0.2325,0.2349,0.2327,0.2352,0.2351,0.2342,0.2336,0.2396,0.24,0.2395,0.2421,0.2505,0.2519,0.2532,0.2595,0.2612,0.2391,0.2391,0.2391,0,0.2148,0.2199,0.2248,0.2276,0.2291,0.2308,0.2328,0.2338,0.2357,0.2375,0.2359,0.2396,0.2374,0.2407,0.2404,0.2407,0.2458,0.2381,0.2514,0.2527,0.2539,0.2601,0.262,0.2393,0.2393,0.2393,0.2393,0,0.2187,0.2229,0.2255,0.2292,0.2324,0.235,0.2366,0.2394,0.2397,0.2406,0.246,0.2456,0.2484,0.2472,0.2439,0.2514,0.2524,0.2518,0.2487,0.2558,0.2618,0.2638,0.2397,0.2396,0.2395,0.2394,0,0,0.221,0.2271,0.2276,0.229,0.2333,0.2358,0.2384,0.2421,0.2464,0.2477,0.2538,0.2524,0.2556,0.2554,0.2548,0.259,0.2694,0.2583,0.2587,0.2637,0.2886,0.2808,0.2822,0.2723,0.2727,0.273,0.2894,0,0.2215,0.2257,0.229,0.2321,0.2343,0.2376,0.2408,0.2449,0.2491,0.2558,0.2577,0.2637,0.258,0.2619,0.2653,0.2697,0.2748,0.265,0.2817,0.2822,0.2738,0.2842,0.2632,0.2753,0.2913,0.2916,0.2918,0,0.2223,0.2255,0.2285,0.2342,0.2359,0.2381,0.2461,0.2498,0.2593,0.2636,0.271,0.2752,0.2817,0.2769,0.2887,0.2837,0.2862,0.2883,0.289,0.2817,0.2781,0.271,0.2783,0.2951,0.2948,0.2946,0.2944,0,0.2185,0.2246,0.2268,0.2285,0.2356,0.2383,0.2427,0.2523,0.2579,0.2715,0.2797,0.2886,0.2958,0.3015,0.3033,0.2993,0.3165,0.3124,0.3081,0.3076,0.2926,0.2901,0.3222,0.3222,0.3222,0.3221,0.3221,0,0.2159,0.2178,0.2257,0.2263,0.2325,0.2383,0.2463,0.2533,0.2653,0.2741,0.2851,0.2948,0.3029,0.3122,0.3117,0.3164,0.3248,0.3112,0.3126,0.2932,0.2906,0.309,0.3073,0.3227,0.3226,0.3225,0.3224,0,0.2101,0.2142,0.219,0.2274,0.23,0.2356,0.2462,0.2538,0.2666,0.2794,0.285,0.3029,0.3159,0.3222,0.3327,0.328,0.3325,0.3313,0.3064,0.3043,0.3159,0.3142,0.3312,0.3311,0.331,0.3309,0.3308,0,0.2084,0.2101,0.2189,0.225,0.2287,0.2367,0.2426,0.2525,0.2612,0.2824,0.2893,0.3078,0.3164,0.3311,0.3298,0.333,0.3345,0.3131,0.2995,0.3179,0.3176,0.316,0.3144,0.2822,0.2817,0.2814,0.2811,0,0.2089,0.2117,0.2154,0.2243,0.2314,0.237,0.2459,0.25,0.2633,0.273,0.2878,0.2966,0.3145,0.3099,0.3153,0.3121,0.3107,0.3054,0.3367,0.2812,0.2725,0.2718,0.2718,0.2777,0.2781,0.2783,0.2785,0.2786,0.2109,0.2133,0.2183,0.2238,0.2332,0.2355,0.2325,0.2423,0.2469,0.2559,0.2727,0.2785,0.2881,0.2859,0.2806,0.2784,0.2962,0.2828,0.2837,0.2851,0.2745,0.2659,0.268,0.2682,0.2684,0.2687,0.2688,0,0.2094,0.2111,0.2189,0.2221,0.2231,0.23,0.233,0.2258,0.2228,0.2404,0.2461,0.2325,0.2353,0.2458,0.2392,0.2405,0.2351,0.2302,0.2218,0.2256,0.2288,0.2148,0.1928,0.1925,0.1922,0.1919,0,0,0.2097,0.2083,0.2062,0.2054,0.21,0.2049,0.2004,0.1934,0.1995,0.1977,0.2021,0.2227,0.2397,0.2114,0.2107,0.2017,0.2106,0.1942,0.2565,0.2505,0.2533,0.262,0.2452,0,0,0,0,0]},{"header":{"parameterUnit":"m.s-1","parameterCategory":2,"la1":30.2991,"la2":30.254,"lo1":-89.0895,"lo2":-89.0444,"dy":0.0017,"dx":0.0017,"nx":28,"ny":28,"refTime":"2024-05-24T09:00:00:Z","depth":"2","parameterNumber":3,"parameterNumberName":"V-component_of_CURRENTS"},"data":[0,0,0,0,0,0,0,0,0,0,0,0,0,0,0,0,0,0,0,0,0,0,0,0,0,0,0,0,0,0,0,0,0,0,0,0,0,0,0,0,0,0,0,0,0,0,0,0,0,0,0,0,0,0,0,0,0,0,-0.0191,-0.0191,0,-0.024,-0.0241,-0.0241,-0.0268,-0.0268,-0.0268,-0.0268,-0.0366,-0.0368,-0.037,0,0,0,0,0,0,0,0,0,0,0,0,0,-0.0129,-0.013,-0.0191,-0.0191,-0.0192,-0.024,-0.0241,-0.0241,-0.0268,-0.0268,-0.0268,-0.0268,-0.0365,-0.0368,-0.0371,0,0,0,0,0,0,0,0,0,0,0,0,0,-0.0163,-0.013,-0.0191,-0.0212,-0.0215,-0.024,-0.0241,-0.0242,-0.0267,-0.0268,-0.0268,-0.0268,-0.0364,-0.0367,-0.0371,-0.0387,0,0,-0.0382,-0.0384,0,0,0,0,0,0,0,0,-0.0161,-0.0165,-0.0208,-0.0211,-0.0214,-0.025,-0.0255,-0.0293,-0.0267,-0.0246,-0.0268,-0.0268,-0.0332,-0.0338,-0.0344,-0.0392,-0.0396,-0.0382,-0.0385,-0.0386,-0.0387,0,0,0,0,0,0,0,-0.0159,-0.0163,-0.0209,-0.0209,-0.0212,-0.0223,-0.0228,-0.0262,-0.0286,-0.0248,-0.025,-0.0258,-0.0334,-0.034,-0.0347,-0.0398,-0.0382,-0.0386,-0.0388,-0.0389,-0.0489,-0.049,0,0,0,0,0,0,-0.0155,-0.0161,-0.0207,-0.021,-0.019,-0.0224,-0.023,-0.0236,-0.0285,-0.0293,-0.0258,-0.0259,-0.0334,-0.0342,-0.035,-0.0385,-0.0386,-0.039,-0.0392,-0.0489,-0.049,-0.049,0,0,0,0,0,0,-0.0154,-0.0159,-0.0205,-0.0188,-0.0195,-0.0225,-0.0232,-0.0237,-0.0248,-0.0292,-0.0301,-0.0265,-0.0335,-0.0345,-0.0394,-0.0388,-0.0391,-0.0394,-0.0488,-0.0489,-0.049,-0.0446,0,0,0,0,0,0,-0.0152,-0.0158,-0.016,-0.0188,-0.0196,-0.0226,-0.0232,-0.0238,-0.0253,-0.0256,-0.0301,-0.031,-0.0336,-0.0389,-0.0398,-0.0393,-0.0397,-0.0488,-0.0489,-0.049,-0.0447,-0.0446,-0.0444,0,0,0,0,0,-0.0149,-0.0156,-0.0159,-0.0165,-0.0198,-0.0226,-0.0231,-0.0252,-0.0253,-0.0262,-0.0298,-0.0309,-0.0401,-0.0393,-0.0403,-0.0399,-0.0487,-0.0488,-0.0489,-0.0448,-0.0446,-0.0444,0,0,0,0,0,0,-0.0128,-0.016,-0.0164,-0.0179,-0.0202,-0.0231,-0.0239,-0.0252,-0.0284,-0.0285,-0.0323,-0.0336,-0.0374,-0.0398,-0.0388,-0.0432,-0.0443,-0.0446,-0.0407,-0.0406,-0.0404,-0.0362,-0.04,0,0,0,0,0,-0.0124,-0.0137,-0.0167,-0.0176,-0.0186,-0.021,-0.0222,-0.0236,-0.0268,-0.0281,-0.0314,-0.035,-0.0385,-0.0405,-0.0441,-0.0469,-0.048,-0.0473,-0.0471,-0.0469,-0.0443,-0.0463,-0.046,-0.0494,-0.0494,-0.0494,0,0,-0.0119,-0.0136,-0.0144,-0.0173,-0.0188,-0.0193,-0.0218,-0.0236,-0.0238,-0.0289,-0.0307,-0.0349,-0.0393,-0.0424,-0.0442,-0.0445,-0.047,-0.0471,-0.0469,-0.0443,-0.0464,-0.046,-0.0457,-0.0494,-0.0494,-0.0494,0,0,-0.0106,-0.0129,-0.0129,-0.0145,-0.0169,-0.0185,-0.0189,-0.022,-0.0234,-0.0264,-0.0297,-0.0337,-0.0389,-0.0417,-0.0437,-0.045,-0.0464,-0.0462,-0.0417,-0.0437,-0.0434,-0.0431,-0.0454,-0.0453,-0.0458,-0.0458,-0.0458,0,-0.0095,-0.0097,-0.0134,-0.0132,-0.0137,-0.0177,-0.0168,-0.019,-0.0234,-0.0237,-0.0265,-0.0327,-0.0379,-0.0399,-0.0408,-0.0443,-0.0454,-0.0418,-0.0432,-0.043,-0.0427,-0.0451,-0.0451,-0.0456,-0.0457,-0.0457,-0.0457,0,-0.0077,-0.0077,-0.0079,-0.0086,-0.0099,-0.0104,-0.0134,-0.0148,-0.017,-0.0188,-0.0218,-0.0287,-0.0314,-0.0348,-0.0385,-0.0391,-0.0406,-0.0429,-0.0429,-0.0421,-0.0448,-0.0448,-0.0454,-0.0454,-0.0455,-0.0455,0,0,-0.0048,-0.0061,-0.0058,-0.004,-0.0072,-0.0072,-0.0082,-0.0092,-0.007,-0.0133,-0.0115,-0.0199,-0.0224,-0.0249,-0.0302,-0.0329,-0.0349,-0.0365,-0.0367,-0.0372,-0.0389,-0.0432,-0.0437,-0.037,-0.0369,-0.0369,-0.0419,0,-0.0013,0.0012,-0.0012,0.002,0.0035,-0.0,0.0006,-0.001,-0.0031,-0.003,-0.0101,-0.0108,-0.019,-0.0193,-0.0239,-0.0308,-0.0345,-0.0332,-0.0407,-0.0409,-0.0437,-0.0437,-0.0402,-0.0445,-0.0419,-0.0419,-0.0419,0,0.0025,0.0039,0.0077,0.01,0.0105,0.0117,0.0141,0.0142,0.0121,0.0105,0.0075,0.0026,-0.0024,-0.0094,-0.0201,-0.0185,-0.0278,-0.0345,-0.0349,-0.0395,-0.0452,-0.0449,-0.0447,-0.042,-0.042,-0.042,-0.042,0,0.0089,0.0108,0.0149,0.0152,0.0163,0.0186,0.0198,0.0193,0.0208,0.0209,0.0234,0.015,0.0132,0.0015,-0.0144,-0.016,-0.0266,-0.0308,-0.0438,-0.0442,-0.0428,-0.0432,-0.0385,-0.0385,-0.0385,-0.0385,-0.0385,0,0.0142,0.0178,0.0192,0.0216,0.0283,0.0269,0.0341,0.0337,0.0342,0.0373,0.0326,0.0335,0.0162,0.0068,-0.0091,-0.0261,-0.0228,-0.0417,-0.0453,-0.0417,-0.0419,-0.0407,-0.0409,-0.0387,-0.0386,-0.0386,-0.0385,0,0.0201,0.021,0.0269,0.03,0.0316,0.0375,0.0421,0.0472,0.0486,0.0525,0.0534,0.0473,0.0369,0.0182,-0.0015,-0.0177,-0.0344,-0.0421,-0.0372,-0.0402,-0.052,-0.0519,-0.055,-0.0552,-0.0553,-0.0555,-0.0556,0,0.0232,0.0266,0.033,0.0386,0.0407,0.0482,0.0533,0.0539,0.0594,0.0604,0.0637,0.0556,0.0488,0.0212,-0.006,-0.0324,-0.0366,-0.0477,-0.0513,-0.0502,-0.0534,-0.0531,-0.0529,-0.0483,-0.0484,-0.0484,-0.0484,0,0.0283,0.031,0.0343,0.0443,0.052,0.0585,0.066,0.0717,0.0728,0.077,0.0778,0.072,0.0484,0.0235,-0.0114,-0.0299,-0.0429,-0.0494,-0.0477,-0.0454,-0.0446,-0.0475,-0.0474,-0.0487,-0.0487,-0.0487,-0.0487,-0.0487,0.0303,0.0335,0.0377,0.0459,0.0569,0.0644,0.0698,0.0782,0.0833,0.0894,0.0856,0.0825,0.0543,0.0128,-0.0174,-0.046,-0.0467,-0.0575,-0.0571,-0.0567,-0.0558,-0.0553,-0.0613,-0.0614,-0.0614,-0.0614,-0.0615,0,0.0275,0.03,0.0388,0.0458,0.056,0.0616,0.0739,0.0804,0.0879,0.098,0.0986,0.0745,0.0474,0.0187,-0.0238,-0.0535,-0.0543,-0.0617,-0.0553,-0.0549,-0.0546,-0.0533,-0.0583,-0.0584,-0.0584,-0.0585,0,0,0.0254,0.0267,0.0279,0.0379,0.0479,0.0584,0.0659,0.0784,0.0906,0.1002,0.1034,0.0994,0.0613,0.0313,-0.0079,-0.0312,-0.0362,-0.0365,-0.0364,-0.0239,-0.0231,-0.0501,-0.0475,0,0,0,0,0]}],[{"header":{"parameterUnit":"m.s-1","parameterCategory":2,"la1":30.2991,"la2":30.254,"lo1":-89.0895,"lo2":-89.0444,"dy":0.0017,"dx":0.0017,"nx":28,"ny":28,"refTime":"2024-05-24T09:00:00:Z","depth":"4","parameterNumber":2,"parameterNumberName":"U-component_of_CURRENTS"},"data":[0,0,0,0,0,0,0,0,0,0,0,0,0,0,0,0,0,0,0,0,0,0,0,0,0,0,0,0,0,0,0,0,0,0,0,0,0,0,0,0,0,0,0,0,0,0,0,0,0,0,0,0,0,0,0,0,0,0,0.1077,0.1077,0,0.1147,0.1148,0.1149,0.1231,0.1232,0.1233,0.1234,0.133,0.1331,0.1333,0,0,0,0,0,0,0,0,0,0,0,0,0,0.1028,0.1028,0.1077,0.1077,0.1078,0.1147,0.1148,0.1149,0.1231,0.1232,0.1234,0.1235,0.1329,0.1331,0.1333,0,0,0,0,0,0,0,0,0,0,0,0,0,0.1071,0.1028,0.1077,0.1125,0.113,0.1147,0.1148,0.115,0.1231,0.1232,0.1234,0.1235,0.1328,0.1331,0.1333,0.1317,0,0,0.134,0.1341,0,0,0,0,0,0,0,0,0.1068,0.1073,0.1118,0.1122,0.1127,0.118,0.1166,0.1206,0.123,0.1195,0.1234,0.1236,0.1279,0.1286,0.1299,0.1322,0.1326,0.1341,0.1342,0.1343,0.1344,0,0,0,0,0,0,0,0.1065,0.107,0.1107,0.1118,0.1124,0.1148,0.1156,0.1174,0.123,0.1198,0.1204,0.1207,0.1283,0.1296,0.1301,0.1327,0.1341,0.1343,0.1344,0.1345,0.1444,0.1446,0,0,0,0,0,0,0.1049,0.1067,0.1105,0.1109,0.1098,0.1148,0.1157,0.1163,0.123,0.124,0.1206,0.1211,0.1291,0.1299,0.1305,0.1405,0.1343,0.1345,0.1347,0.1443,0.1445,0.1446,0,0,0,0,0,0,0.1048,0.1052,0.1102,0.1088,0.1096,0.1147,0.1154,0.1164,0.1207,0.1234,0.1247,0.1241,0.1293,0.1302,0.1354,0.1405,0.1346,0.1349,0.1442,0.1444,0.1445,0.1531,0,0,0,0,0,0,0.1046,0.1051,0.1062,0.1087,0.1096,0.1133,0.1152,0.1164,0.1203,0.1211,0.1267,0.1276,0.1295,0.135,0.1356,0.1407,0.135,0.144,0.1443,0.1445,0.1527,0.1536,0.1543,0,0,0,0,0,0.1044,0.104,0.1062,0.1067,0.1106,0.1133,0.1142,0.1184,0.1203,0.1227,0.1269,0.1276,0.1369,0.1353,0.136,0.1413,0.1439,0.1442,0.1445,0.1523,0.1534,0.1543,0,0,0,0,0,0,0.1022,0.1048,0.1074,0.1079,0.1117,0.1147,0.116,0.1194,0.1244,0.1259,0.1289,0.1301,0.1362,0.1367,0.1348,0.1445,0.1405,0.141,0.1463,0.1473,0.1481,0.1462,0.1352,0,0,0,0,0,0.1021,0.1032,0.1066,0.1077,0.1088,0.1131,0.115,0.1188,0.1226,0.1252,0.1289,0.1329,0.1371,0.1407,0.1429,0.1484,0.1487,0.152,0.1529,0.1536,0.1523,0.1577,0.159,0.1455,0.1455,0.1455,0,0,0.1012,0.1031,0.1036,0.1074,0.1099,0.1128,0.1148,0.1184,0.1229,0.1251,0.1316,0.1351,0.1386,0.1452,0.1481,0.1472,0.158,0.1539,0.1546,0.1528,0.1581,0.1595,0.1606,0.1457,0.1456,0.1456,0,0,0.1001,0.1018,0.103,0.1062,0.111,0.1135,0.1151,0.1201,0.1244,0.1303,0.1339,0.1401,0.1455,0.1507,0.1535,0.1595,0.1609,0.1614,0.1663,0.1717,0.1729,0.1739,0.178,0.1793,0.1635,0.1635,0.1636,0,0.0996,0.1023,0.104,0.1068,0.1099,0.114,0.1177,0.1214,0.1286,0.1333,0.1331,0.1445,0.1477,0.1577,0.1609,0.1616,0.1645,0.163,0.1729,0.1739,0.1748,0.1788,0.1801,0.164,0.1639,0.1639,0.1638,0,0.1003,0.1037,0.104,0.1094,0.1128,0.1162,0.1215,0.1267,0.1314,0.1367,0.1464,0.1509,0.1586,0.1616,0.1635,0.1736,0.1735,0.1724,0.1707,0.1767,0.1805,0.1818,0.1646,0.1645,0.1643,0.1642,0,0,0.0957,0.1035,0.104,0.1089,0.1153,0.1185,0.1248,0.1333,0.1399,0.1461,0.1547,0.1629,0.1668,0.17,0.1746,0.1799,0.19,0.1802,0.1803,0.1848,0.2028,0.1904,0.1906,0.1924,0.1926,0.1928,0.2036,0,0.0968,0.1032,0.107,0.1143,0.1181,0.1245,0.1306,0.1392,0.1459,0.1544,0.1612,0.1698,0.1698,0.1761,0.1813,0.1885,0.1934,0.1871,0.1956,0.1958,0.1845,0.1915,0.1934,0.2045,0.2048,0.205,0.2051,0,0.0969,0.1017,0.1092,0.12,0.1222,0.1281,0.1401,0.1466,0.1584,0.164,0.1729,0.1773,0.1887,0.1851,0.1989,0.196,0.1993,0.2022,0.2027,0.1881,0.1856,0.1966,0.2074,0.2072,0.207,0.2069,0.2067,0,0.0943,0.1036,0.1106,0.1139,0.1254,0.1324,0.1396,0.1514,0.1588,0.1715,0.1775,0.1886,0.1965,0.202,0.2082,0.2061,0.2199,0.2176,0.2085,0.2078,0.2119,0.2106,0.2238,0.2237,0.2237,0.2237,0.2237,0,0.0941,0.0996,0.1112,0.1151,0.125,0.1338,0.1457,0.154,0.1665,0.1751,0.1836,0.1903,0.2012,0.2094,0.2121,0.2147,0.2239,0.2094,0.2098,0.2154,0.2144,0.2129,0.2115,0.2241,0.224,0.2239,0.2239,0,0.0908,0.0979,0.1066,0.1199,0.1246,0.1326,0.1484,0.1556,0.1686,0.1794,0.184,0.197,0.2077,0.2151,0.2258,0.22,0.2232,0.2207,0.2273,0.2279,0.2065,0.2055,0.2124,0.212,0.2118,0.2115,0.2113,0,0.0898,0.0939,0.1085,0.1128,0.1198,0.1321,0.1395,0.1553,0.1618,0.1812,0.1844,0.1997,0.2064,0.2117,0.2199,0.2244,0.2207,0.2203,0.2107,0.2057,0.2055,0.2049,0.2042,0.2108,0.2108,0.2107,0.2106,0,0.0864,0.0927,0.0993,0.1082,0.1171,0.1264,0.1383,0.1427,0.1596,0.1729,0.1811,0.1871,0.1981,0.2048,0.2098,0.2117,0.2197,0.2172,0.2177,0.2086,0.2039,0.2039,0.2036,0.2096,0.2097,0.2098,0.2099,0,0.0829,0.0862,0.094,0.1016,0.111,0.1168,0.1254,0.134,0.1437,0.1641,0.167,0.1824,0.1963,0.1985,0.2032,0.2046,0.2009,0.1927,0.1944,0.1956,0.1848,0.176,0.1741,0,0,0,0,0,0.0781,0.0797,0.0853,0.0931,0.1021,0.1077,0.1213,0.1297,0.1464,0.1482,0.1574,0.1662,0.1749,0.1829,0.1812,0.1956,0.201,0.1926,0.1922,0.204,0.2052,0.1939,0,0,0,0,0,0,0.0738,0.0785,0.0816,0.0837,0.0869,0.0962,0.1046,0.1164,0.1182,0.1355,0.1412,0.1548,0.1657,0.1738,0.1773,0.1798,0.176,0.203,0.2026,0.2033,0.2044,0.2053,0.1941,0,0,0,0,0]},{"header":{"parameterUnit":"m.s-1","parameterCategory":2,"la1":30.2991,"la2":30.254,"lo1":-89.0895,"lo2":-89.0444,"dy":0.0017,"dx":0.0017,"nx":28,"ny":28,"refTime":"2024-05-24T09:00:00:Z","depth":"4","parameterNumber":3,"parameterNumberName":"V-component_of_CURRENTS"},"data":[0,0,0,0,0,0,0,0,0,0,0,0,0,0,0,0,0,0,0,0,0,0,0,0,0,0,0,0,0,0,0,0,0,0,0,0,0,0,0,0,0,0,0,0,0,0,0,0,0,0,0,0,0,0,0,0,0,0,0.0038,0.0038,0,0.0008,0.0008,0.0008,-0.0044,-0.0045,-0.0046,-0.0047,-0.0129,-0.0131,-0.0132,0,0,0,0,0,0,0,0,0,0,0,0,0,-0.0002,-0.0001,0.0038,0.0038,0.0037,0.0009,0.0008,0.0008,-0.0044,-0.0045,-0.0046,-0.0047,-0.0129,-0.013,-0.0132,0,0,0,0,0,0,0,0,0,0,0,0,0,-0.0004,-0.0,0.0038,0.0009,0.0006,0.0009,0.0008,0.0007,-0.0044,-0.0045,-0.0047,-0.0048,-0.0128,-0.013,-0.0132,-0.0117,0,0,-0.0138,-0.0139,0,0,0,0,0,0,0,0,-0.0004,-0.0003,0.0013,0.0011,0.0008,-0.0015,-0.0036,-0.0037,-0.0044,-0.0026,-0.0047,-0.0049,-0.0094,-0.0099,-0.0102,-0.0121,-0.0125,-0.0139,-0.014,-0.0141,-0.0141,0,0,0,0,0,0,0,-0.0003,-0.0002,0.0025,0.0013,0.001,-0.0021,-0.0022,-0.0037,-0.0054,-0.0027,-0.0031,-0.0033,-0.0097,-0.01,-0.0105,-0.0126,-0.0138,-0.014,-0.0141,-0.0142,-0.0169,-0.0169,0,0,0,0,0,0,0.0006,-0.0001,0.0026,0.0025,-0.0001,-0.0019,-0.002,-0.0007,-0.0052,-0.006,-0.0031,-0.0035,-0.0096,-0.0102,-0.0108,-0.0118,-0.0141,-0.0142,-0.0144,-0.017,-0.0169,-0.0169,0,0,0,0,0,0,0.0006,0.001,0.0028,0.001,0.0011,-0.0016,-0.0001,-0.0007,-0.0017,-0.0055,-0.0064,-0.0037,-0.0097,-0.0105,-0.0123,-0.0121,-0.0143,-0.0145,-0.017,-0.017,-0.0169,-0.0122,0,0,0,0,0,0,0.0005,0.001,0.0022,0.0012,0.0012,0.0038,0.0,-0.0006,-0.0015,-0.002,-0.0062,-0.0071,-0.0099,-0.012,-0.0125,-0.0124,-0.0147,-0.0171,-0.017,-0.0169,-0.0124,-0.012,-0.0116,0,0,0,0,0,0.0004,0.0045,0.0023,0.0026,0.003,0.0039,0.0037,0.0011,-0.0014,-0.0006,-0.0042,-0.007,-0.0118,-0.0121,-0.0127,-0.0127,-0.0172,-0.017,-0.0169,-0.0126,-0.0121,-0.0116,0,0,0,0,0,0,0.004,0.0043,0.0019,0.0058,0.0045,0.003,0.0045,0.0015,-0.0005,-0.0012,-0.006,-0.007,-0.0085,-0.0108,-0.011,-0.0131,-0.015,-0.015,-0.0115,-0.0111,-0.0107,-0.011,-0.0148,0,0,0,0,0,0.0051,0.0077,0.0063,0.0089,0.0092,0.0063,0.0061,0.0041,0.0022,0.0011,-0.0023,-0.0057,-0.0082,-0.0099,-0.0118,-0.0127,-0.017,-0.0131,-0.0127,-0.0124,-0.013,-0.0189,-0.0192,-0.0165,-0.0165,-0.0165,0,0,0.0074,0.0075,0.009,0.0097,0.0089,0.0095,0.006,0.007,0.0061,0.0007,-0.0007,-0.0039,-0.0079,-0.0091,-0.0101,-0.0114,-0.0151,-0.0122,-0.0119,-0.0128,-0.0188,-0.0191,-0.0194,-0.0164,-0.0165,-0.0165,0,0,0.0121,0.0133,0.0159,0.0153,0.0143,0.0131,0.0133,0.0114,0.0098,0.0085,0.0037,0.0006,-0.0023,-0.0061,-0.0082,-0.0065,-0.0123,-0.0072,-0.0061,-0.0118,-0.0121,-0.0124,-0.0176,-0.0184,-0.0076,-0.0076,-0.0076,0,0.014,0.0162,0.0166,0.0178,0.0173,0.0147,0.0155,0.0148,0.0116,0.0094,0.009,0.0016,-0.0008,-0.0056,-0.0049,-0.0057,-0.0102,-0.0076,-0.0114,-0.0118,-0.0122,-0.0174,-0.0184,-0.0073,-0.0073,-0.0074,-0.0074,0,0.0187,0.0198,0.0221,0.0219,0.0223,0.0234,0.0217,0.0207,0.0184,0.0153,0.0112,0.0074,0.0019,0.0013,-0.0011,-0.0059,-0.0085,-0.0098,-0.0128,-0.0122,-0.0177,-0.0188,-0.007,-0.0071,-0.0071,-0.0072,0,0,0.0236,0.0248,0.025,0.0239,0.0239,0.0244,0.0247,0.0223,0.0197,0.0175,0.0128,0.0099,0.0058,0.0031,-0.0012,-0.0057,-0.0112,-0.0089,-0.0093,-0.0143,-0.0246,-0.0219,-0.0229,-0.0141,-0.0142,-0.0144,-0.027,0,0.0255,0.0275,0.0279,0.0287,0.0292,0.0273,0.0272,0.0247,0.0218,0.0173,0.0125,0.0079,0.007,0.0034,-0.0009,-0.0091,-0.014,-0.0077,-0.0242,-0.0247,-0.0226,-0.024,-0.0149,-0.0279,-0.0281,-0.0283,-0.0285,0,0.0279,0.0287,0.0302,0.0292,0.0295,0.0299,0.0269,0.0263,0.0206,0.018,0.0124,0.0074,0.0005,0.0001,-0.013,-0.0095,-0.0165,-0.0221,-0.0228,-0.0229,-0.024,-0.0288,-0.0305,-0.0304,-0.0302,-0.0301,-0.0299,0,0.0278,0.0294,0.0301,0.03,0.03,0.0296,0.0293,0.0256,0.0242,0.017,0.014,0.0051,-0.0,-0.0093,-0.0186,-0.0175,-0.0334,-0.0335,-0.038,-0.0379,-0.0388,-0.0383,-0.0435,-0.0435,-0.0435,-0.0434,-0.0434,0,0.0281,0.028,0.0301,0.03,0.0301,0.0304,0.0289,0.0266,0.0233,0.0213,0.0139,0.0098,-0.0028,-0.0126,-0.0208,-0.0322,-0.0353,-0.0387,-0.0413,-0.0363,-0.0354,-0.0396,-0.0389,-0.0439,-0.0438,-0.0437,-0.0436,0,0.0257,0.0275,0.0277,0.029,0.0297,0.0294,0.0301,0.0285,0.026,0.0228,0.0207,0.0109,-0.0005,-0.013,-0.0293,-0.0347,-0.0461,-0.0497,-0.0436,-0.0456,-0.0468,-0.0457,-0.0569,-0.0569,-0.0569,-0.0569,-0.0569,0,0.0231,0.0236,0.0264,0.0268,0.0272,0.0281,0.0285,0.029,0.0286,0.0246,0.0229,0.0113,0.0042,-0.0157,-0.0294,-0.0469,-0.0481,-0.0553,-0.0504,-0.0469,-0.0484,-0.0473,-0.0463,-0.057,-0.057,-0.057,-0.057,0,0.0174,0.0195,0.0202,0.0234,0.0248,0.0269,0.0287,0.03,0.0313,0.0282,0.026,0.0158,0.0021,-0.0131,-0.0279,-0.0398,-0.0512,-0.0555,-0.0555,-0.051,-0.0471,-0.0483,-0.0473,-0.057,-0.057,-0.057,-0.057,0,0.012,0.0123,0.0158,0.0194,0.0222,0.0273,0.0279,0.0306,0.0322,0.0314,0.0303,0.0176,0.0092,-0.0097,-0.0225,-0.0347,-0.0371,-0.04,-0.0408,-0.041,-0.0315,-0.0239,-0.0299,0,0,0,0,0,0.007,0.0098,0.0115,0.018,0.0221,0.0262,0.0291,0.0305,0.0335,0.0338,0.0339,0.0233,0.0054,-0.0042,-0.0156,-0.0253,-0.0419,-0.0393,-0.0462,-0.0573,-0.0572,-0.0484,0,0,0,0,0,0,0.0033,0.0053,0.0108,0.0187,0.0239,0.0298,0.0333,0.0345,0.0357,0.0361,0.0269,0.0222,0.0036,0.014,-0.0145,-0.019,-0.0247,-0.0485,-0.0487,-0.0573,-0.0573,-0.0572,-0.0481,0,0,0,0,0]}]]